Regional Weather Roundup
Issued by NWS

Home | Current Version | Previous Version | Graphics & Text | Print | Product List | Glossary Off
Versions: 1 2 3 4 5 6 7 8 9 10 11 12 13 14 15 16 17 18 19 20 21 22 23 24 25 26 27 28 29 30 31 32 33 34 35 36 37 38 39 40 41 42 43 44 45 46 47 48 49 50

000
ASUS43 KDMX 181701
RWRIA

WEATHER ROUNDUP FOR IOWA
NATIONAL WEATHER SERVICE DES MOINES IA
1100 AM CST WED JAN 18 2017

NOTE: "FAIR" INDICATES FEW OR NO CLOUDS BELOW 12,000 FEET WITH NO
SIGNIFICANT WEATHER AND/OR OBSTRUCTIONS TO VISIBILITY.

* - THESE STATIONS ARE NOT NWS STATIONS...THUS NOT UNDER NWS
QUALITY CONTROL.  THEY ALSO DO NOT REPORT WEATHER SUCH
AS PRECIPITATION OR FOG.

IAZ001>003-012>014-020>022-031>034-043>046-181800-
   NORTHWEST IOWA

CITY           SKY/WX    TMP DP  RH WIND       PRES   REMARKS
CARROLL *      SUNNY     37  36  93 SW15      29.99F WCI  28
CHEROKEE *     SUNNY     37  35  94 S10       29.95F WCI  30
DENISON *      SUNNY     37  34  87 S8        29.98F WCI  31
LE MARS *      SUNNY     36  32  87 S12       29.94F WCI  27
ORANGE CITY *  SUNNY     36  34  93 S13       29.92S WCI  27
SHELDON *      SUNNY     36  36 100 S12       29.91S WCI  27
SIOUX CITY     SUNNY     40  34  79 SE10      29.95R WCI  33
SPENCER        SUNNY     35  32  88 SW10      29.94R WCI  27
STORM LAKE *   SUNNY     36  32  87 S13       29.96R WCI  27
$$

IAZ055>058-069>071-079>083-090>094-181800-
   SOUTHWEST IOWA

CITY           SKY/WX    TMP DP  RH WIND       PRES   REMARKS
ATLANTIC *     SUNNY     37  34  87 S13       30.04F WCI  29
AUDUBON *      SUNNY     37  34  87 S8        30.03F WCI  31
CLARINDA *     SUNNY     37  37 100 S7        30.09F WCI  32
COUNCIL BLFS * SUNNY     41  36  81 S9        30.03F
CRESTON *      MIX PCPN  36  36 100 S9        30.09F WCI  29
HARLAN  *      SUNNY     37  36  93 S10       30.05F WCI  30
LAMONI         FOG       32  31  96 S10       30.10F VSB 1/4 WCI  24
RED OAK *      SUNNY     37  36  93 S9        30.06F WCI  31
SHENANDOAH *   SUNNY     39  36  87 S6        30.07F WCI  35
$$

IAZ047>049-059>061-072>074-084-181800-
   CENTRAL IOWA

CITY           SKY/WX    TMP DP  RH WIND       PRES   REMARKS
AMES           CLOUDY    32  32 100 S10       30.06F FOG     WCI  24
ANKENY *       CLOUDY    36  34  93 S9        30.08F WCI  29
BOONE *        CLOUDY    34  34 100 S8G15     30.03F WCI  27
CHARITON *     CLOUDY    34  32  93 S12       30.10F FOG     WCI  25
DES MOINES     MOSUNNY   36  33  89 S10       30.08F WCI  28
GRINNELL*      FOG       32  32  99 S12       30.10F VSB 1/4 WCI  23
KNOXVILLE *    CLOUDY    34  32  93 S12       30.09F WCI  25
MARSHALLTOWN   FOG       31  31 100 S14       30.07S VSB 1/2 WCI  21
NEWTON *       FOG       32  32 100 S13       30.08F VSB 3/4 WCI  22
PELLA *        CLOUDY    34  33  96 S8        30.12F FOG     WCI  27
PERRY *          N/A     37  35  93 S13       30.04F WCI  29
$$

IAZ004>006-015-016-023>025-035-036-181800-
   NORTH CENTRAL IOWA

CITY           SKY/WX    TMP DP  RH WIND       PRES   REMARKS
ALGONA *       SUNNY     36  34  93 S16       29.95S WCI  26
CLARION *      MOSUNNY   32  32 100 S20       30.00S FOG     WCI  20
ESTHERVILLE    SUNNY     33  31  92 SW10      29.93R WCI  25
FORT DODGE *   SUNNY     37  30  75 S15G21    30.01R WCI  28
MASON CITY     CLOUDY    31  30  96 S15       29.98F FOG     WCI  20
FOREST CITY *    N/A     34  34 100 S9        29.97S WCI  26
WEBSTER CITY * CLOUDY    34  34 100 S15       30.01R WCI  24
IOWA FALLS *   FOG       32  31  98 S12       30.05R VSB 1/2 WCI  23
$$

IAZ007>011-017>019-026>030-037>042-050>054-066-181800-
   NORTHEAST IOWA

CITY           SKY/WX    TMP DP  RH WIND       PRES   REMARKS
CEDAR RAPIDS   CLOUDY    31  29  92 S16       30.10F FOG     WCI  20
CHARLES CITY * FOG       30  32 100 S13G20    30.00F VSB<1/4 WCI  20
CLINTON *      CLOUDY    33  31  92 SW15      30.14F WCI  23
DECORAH *      CLOUDY    30  30 100 S15G21    30.02S FOG     WCI  19
DUBUQUE        CLOUDY    30  29  96 SW21      30.07S FOG     WCI  17
MONTICELLO *   CLOUDY    34  30  86 S10       30.09F WCI  26
OELWEIN *      FOG       30  30 100 S16       30.05F VSB 1/4 WCI  19
WATERLOO       CLOUDY    31  30  96 S13       30.06S FOG     WCI  21
$$

IAZ064-065-067-068-078-181800-
   EAST CENTRAL IOWA

CITY           SKY/WX    TMP DP  RH WIND       PRES   REMARKS
DAVENPORT      CLOUDY    33  30  88 S10       30.15F WCI  25
IOWA CITY      CLOUDY    33  30  88 S10       30.15F WCI  25
MUSCATINE *    CLOUDY    34  30  86 S12       30.17F WCI  25
QUAD CITIES    CLOUDY    35  30  82 SW13      30.15F WCI  26
$$

IAZ062-063-075>077-085>089-095>099-181800-
   SOUTHEAST IOWA

CITY           SKY/WX    TMP DP  RH WIND       PRES   REMARKS
BURLINGTON     CLOUDY    36  34  92 SW8       30.16F WCI  30
FAIRFIELD *    CLOUDY    36  32  87 S10       30.14F FOG     WCI  28
FORT MADISON * CLOUDY    37  36  93 SW9       30.17F WCI  31
KEOKUK *       CLOUDY    37  36  93 SW9       30.16F WCI  31
OSKALOOSA *    CLOUDY    33  32  98 S9        30.13F FOG     WCI  25
OTTUMWA        CLOUDY    35  32  88 S13       30.13S FOG     WCI  26
WASHINGTON *   CLOUDY    34  34 100 SW14      30.15F FOG     WCI  24
$$

ABBREVIATIONS USED IN REMARKS
   TC - TEMPERATURES IN CELSIUS
  WCI - WIND CHILL INDEX
   HX - HEAT INDEX
  VSB - VISIBILITY
$$





USA.gov is the U.S. government's official web portal to all federal, state and local government web resources and services.